SCP
0 0 0 0 0 0 0 0 0 0 0 0 0 0 0 0 0 0 0 0 0 0 0 0 0 0 0 0 0 0 0 0 0 0 0 0 0 0 0 0 0 0 -0 -0 0 -0 -0 -0 -0 -0 -0 0 0 0
0 0 0 0 0 0 0 0 0 0 0 0 0 0 0 0 0 0 0 0 0 0 0 0 0 0 0 0 0 0 0 0 0 0 0 0 0 0 0 0 0 -0 0 0 0 0 0 -0 -0 -0 -0 0 0 0
0 0 0 0 0 0 0 0 0 0 0 0 0 0 0 0 0 0 0 0 0 0 0 0 0 0 0 0 0 0 0 0 0 0 0 0 0 0 0 0 0 -0 -0 -0 -0 -0 0 0 0 -0 0 0 -0 0
0 0 0 0 0 0 0 0 0 0 0 0 0 0 0 0 0 0 0 0 0 0 0 0 0 0 0 0 0 0 0 0 0 0 0 0 0 0 0 0 0 0 0 -0 -0 0 -0 0 0 0 0 -0 -0 -0
0 0 0 0 0 0 0 0 0 0 0 0 0 0 0 0 0 0 0 0 0 0 0 0 0 0 0 0 0 0 0 0 0 0 0 0 0 0 0 0 0 0 -0 -0 -0 0 -0 0 -0 0 0 0 0 -0
0 0 0 0 0 0 0 0 0 0 0 0 0 0 0 0 0 0 0 0 0 0 0 0 0 0 0 0 0 0 0 0 0 0 0 0 0 0 0 0 0 0 0 0 -0 -0 -0 0 -0 0 0 0 0 -0
0 0 0 0 0 0 0 0 0 0 0 0 0 0 0 0 0 0 0 0 0 0 0 0 0 0 0 0 0 0 0 0 0 0 0 0 0 0 0 0 0 0 0 0 0 -0 -0 -0 -0 0 0 0 0 0
0 0 0 0 0 0 0 0 0 0 0 0 0 0 0 0 0 0 0 0 0 0 0 0 0 0 0 0 0 0 0 0 0 0 0 0 0 0 0 0 0 0 0 0 0 0 -0 -0 -0 -0 -0 -0 -0 0
0 0 0 0 0 0 0 0 0 0 0 0 0 0 0 0 0 0 0 0 0 0 0 0 0 0 0 0 0 0 0 0 0 -0 0 0 0 0 0 0 0 0 0 0 0 0 0 0 0 -0 -0 -0 -0 -0
0 0 0 0 0 0 0 0 0 0 0 0 0 0 0 0 0 0 0 0 0 0 0 0 0 0 0 0 0 0 0 0 -0 0 0 0 -0 -0 0 0 0 0 0 0 0 0 0 0 0 0 0 0 0 0
0 0 0 0 0 0 0 0 0 0 0 0 0 0 0 0 0 0 0 0 0 0 0 0 0 0 0 0 0 0 0 0 0 -0 0 0 -0 -0 0 -0 0 0 0 0 0 0 0 0 0 0 0 0 0 0
0 0 0 0 0 0 0 0 0 0 0 0 0 0 0 0 0 0 0 0 0 0 0 0 0 0 0 0 0 0 0 0 0 0 0 -0 0 -0 0 0 -0 -0 -0 0 0 0 0 0 0 0 0 0 0 0
0 0 0 0 0 0 0 0 0 0 0 0 0 0 0 0 0 0 0 0 0 0 0 0 0 0 0 0 0 0 0 0 0 0 0 -0 -0 -0 -0 -0 -0 -0 -0 -0 0 0 0 0 0 0 0 0 0 0
0 -0 0 0 0 0 0 0 0 0 0 0 0 0 0 0 0 0 0 0 0 0 0 0 0 0 0 0 0 0 0 0 0 0 0 0 0 0 0 0 -0 -0 -0 0 0 0 0 0 0 0 0 0 0 0
0 -0 0 0 0 0 0 0 0 0 0 0 0 0 0 0 0 0 0 0 0 0 0 0 0 0 0 0 0 0 0 0 0 0 0 0 0 0 0 0 0 0 0 0 0 0 0 0 0 0 0 0 0 0
-0 -0 0 0 0 0 0 0 0 0 0 0 0 0 0 0 0 0 0 0 0 0 0 0 0 0 0 0 0 0 0 0 -0 0 0 0 0 0 0 0 0 0 0 0 0 0 0 0 0 0 0 0 0 0
-0 -0 0 0 0 0 0 0 0 0 0 0 0 0 0 0 0 0 0 0 0 0 0 0 0 0 0 0 0 0 -0 0 0 0 0 0 0 0 0 0 0 0 0 0 0 0 0 0 0 0 0 0 0 0
-0 0 0 0 0 0 0 0 0 0 0 0 0 0 0 0 0 0 0 0 0 0 0 0 0 0 0 0 0 0 0 -0 0 0 0 0 0 0 0 0 0 0 0 0 0 0 0 0 0 0 0 0 0 0
0 0 0 0 0 0 0 0 0 0 0 0 0 0 0 0 0 0 0 0 0 0 0 0 0 0 0 0 0 -0 0 0 -0 0 0 0 0 0 0 0 0 0 0 0 0 0 0 0 0 0 0 0 0 0
0 0 0 0 0 0 0 0 0 0 0 0 0 0 0 0 0 0 0 0 0 0 0 0 0 0 0 0 0 -0 -0 0 0 0 0 0 0 0 -0 -0 0 0 0 0 0 0 0 0 0 0 0 0 0 0
0 0 0 0 0 0 0 0 0 0 0 0 0 0 0 0 0 0 0 0 0 0 0 0 0 0 0 0 0 0 0 0 0 0 0 0 0 -0 -0 -0 -0 0 0 0 0 0 0 0 0 0 0 0 0 0
0 0 0 0 0 0 0 0 0 0 0 0 0 0 0 0 0 0 0 0 0 0 0 0 0 0 0 0 0 0 0 0 0 0 0 -0 -0 -0 -0 -0 -0 0 0 0 0 0 0 0 0 0 0 0 0 0
0 0 0 0 0 0 0 0 0 0 0 0 0 0 0 0 0 0 0 0 0 0 0 0 0 0 0 0 0 0 0 0 0 0 0 0 0 0 0 -0 0 0 0 0 0 0 0 0 0 0 0 0 0 0
0 0 0 0 0 0 0 0 0 0 0 0 0 0 0 0 0 0 0 0 0 0 0 0 0 0 0 0 0 0 0 0 0 0 0 0 0 0 0 0 0 0 0 0 0 0 0 0 0 0 0 0 0 0
0 0 0 0 0 0 0 0 0 0 0 0 0 0 0 0 0 0 0 0 0 0 0 0 0 0 0 0 0 0 0 0 0 0 0 0 0 0 0 0 0 0 0 0 0 0 0 0 0 0 0 0 0 0
0 0 0 0 0 0 0 0 0 0 0 0 0 0 0 0 0 0 0 0 0 0 0 0 0 0 0 0 0 0 0 0 0 0 0 0 0 0 0 0 0 0 0 0 0 0 0 0 0 0 0 0 0 0
0 0 0 0 0 0 0 0 0 0 0 0 0 0 0 0 0 0 0 0 0 0 0 0 0 0 0 0 0 0 0 0 0 0 0 0 0 0 0 0 0 0 0 0 0 0 0 0 0 0 0 0 0 0
0 0 0 0 0 0 0 0 0 0 0 0 0 0 0 0 0 0 0 0 0 0 0 0 0 0 0 0 0 0 0 0 0 0 0 0 0 0 0 0 0 0 0 0 0 0 0 0 0 0 0 0 0 0
0 0 0 0 0 0 0 0 0 0 0 0 0 0 0 0 0 0 0 0 0 0 0 0 0 0 0 0 0 0 0 0 0 0 0 0 0 0 0 0 0 0 0 0 0 0 0 0 0 0 0 0 0 0
0 0 0 0 0 0 0 0 0 0 0 0 0 0 0 0 0 0 0 0 0 0 0 0 0 0 0 0 0 0 0 0 0 0 0 0 0 0 0 0 0 0 0 0 0 0 0 0 0 0 0 0 0 0
0 0 0 0 0 0 0 0 0 0 0 0 0 0 0 0 0 0 0 0 0 0 0 0 0 0 0 0 0 0 0 0 0 0 0 0 0 0 0 0 0 0 0 0 0 0 0 0 0 0 0 0 0 0
0 0 0 0 0 0 0 0 0 0 0 0 0 0 0 0 0 0 0 0 0 0 0 0 0 0 0 0 0 0 0 0 0 0 0 0 0 0 0 0 0 0 0 0 0 0 0 0 0 0 0 0 0 0
0 0 0 0 0 0 0 0 0 0 0 0 0 0 0 0 0 0 0 0 0 0 0 0 0 0 0 0 0 0 0 0 0 0 0 0 0 0 0 0 0 0 0 0 0 0 0 0 0 0 0 0 0 0
Wind_Speed_500mb
70 71 77 75 82 95 76 73 73 78 79 77 83 87 72 97 105 114 76 75 72 16 20 30 22 17 20 16 8 17 8 1 2 2 4 3 2 5 1 7 8 12 9 8 7 6 13 13 14 8 9 36 30 33
72 67 71 77 73 80 99 84 73 75 78 78 82 94 90 101 115 116 73 66 64 19 17 26 24 20 20 22 18 24 8 10 6 3 0 4 4 3 5 6 4 6 11 5 12 9 6 4 10 18 21 31 24 30
73 70 73 73 67 74 77 84 83 75 74 76 70 86 109 108 117 118 87 86 61 29 11 15 17 22 21 20 22 13 12 13 10 10 2 2 6 5 6 10 6 11 10 5 4 8 10 19 17 19 16 18 22 16
73 63 73 68 57 73 77 75 83 76 76 67 77 84 113 115 116 119 92 90 59 24 9 8 16 15 21 20 22 24 14 16 12 12 4 3 4 3 5 5 7 8 12 10 10 23 36 41 14 5 6 13 15 11
73 71 67 65 55 82 79 76 81 76 76 74 75 87 118 121 123 108 85 88 62 25 11 11 13 12 11 12 15 14 13 14 9 8 5 6 5 2 8 4 8 23 13 14 11 11 6 1 5 2 5 13 17 18
67 73 74 65 62 88 76 72 79 74 78 72 71 93 123 126 123 97 27 78 67 34 7 6 8 12 9 13 12 16 15 16 9 8 7 6 5 3 3 7 23 40 35 41 10 15 6 7 8 8 7 10 16 16
69 75 69 71 66 98 72 77 76 74 68 70 77 114 128 126 117 78 27 32 85 38 9 12 7 9 15 13 9 10 12 7 9 6 8 7 8 11 6 7 15 34 45 38 37 26 20 22 14 9 5 8 12 10
76 68 74 59 69 86 73 70 75 76 68 66 95 123 125 116 100 43 24 49 78 38 9 7 4 9 21 10 8 10 8 7 9 5 6 7 7 11 11 41 32 18 23 40 47 36 25 11 14 11 11 12 10 6
77 67 86 60 61 83 78 68 75 71 66 88 113 129 115 87 51 31 44 77 63 22 13 13 12 7 24 11 10 10 9 5 6 7 6 5 7 13 26 33 36 47 28 15 34 39 40 36 28 24 22 17 10 8
62 63 74 71 62 79 82 67 76 69 78 131 142 73 19 45 70 68 36 18 22 14 9 7 18 6 18 14 10 11 8 5 4 7 4 6 9 65 55 36 23 16 38 27 22 26 34 39 32 25 19 18 11 14
59 67 69 64 61 78 84 74 74 103 140 115 32 13 85 92 59 15 15 13 16 5 19 19 19 14 23 8 8 12 6 2 3 6 7 6 8 13 15 36 50 26 25 38 31 17 15 16 23 21 20 18 15 18
61 62 64 61 71 80 83 89 116 132 74 71 56 97 54 19 10 10 8 4 9 13 26 27 20 18 20 14 11 10 6 4 6 9 5 8 10 26 13 21 46 47 31 33 28 20 13 11 14 20 20 15 15 17
57 57 72 60 78 85 86 102 122 106 85 113 46 14 18 8 11 21 22 9 9 24 25 28 11 18 16 11 13 7 7 9 10 3 8 12 13 13 28 28 35 46 43 34 29 21 15 13 23 25 22 23 23 25
53 55 61 65 85 94 117 140 120 120 83 16 15 15 11 11 13 10 9 12 18 32 71 64 24 14 12 7 9 11 4 4 3 4 14 7 30 34 39 34 31 34 36 33 28 25 25 28 30 30 26 26 27 31
46 42 54 68 91 107 149 137 131 109 31 12 15 13 15 13 14 31 51 50 35 78 85 38 19 11 4 8 3 9 7 10 14 12 8 11 18 48 51 44 36 32 31 29 29 35 30 34 30 28 28 29 34 37
35 36 50 67 75 156 154 134 117 70 20 19 16 12 26 17 4 18 37 38 59 74 70 18 8 7 4 12 8 18 15 15 9 9 20 11 30 50 49 41 33 28 26 25 29 37 31 33 32 29 32 35 38 37
34 19 51 50 133 149 147 126 51 14 13 14 5 22 28 28 36 40 51 49 91 72 9 11 12 16 9 6 7 12 12 8 12 18 18 13 33 50 48 40 34 31 31 32 35 36 33 35 37 35 39 43 44 40
38 36 49 99 160 137 90 52 24 14 7 8 9 29 23 34 49 47 48 94 68 42 26 12 22 8 13 16 9 9 38 30 19 16 17 22 41 46 44 41 38 34 33 34 32 30 31 36 39 39 41 44 44 41
42 37 45 129 142 66 17 27 7 11 9 12 29 35 25 29 32 58 66 95 58 27 22 20 7 9 9 14 15 24 38 42 34 28 27 39 53 50 43 36 32 35 39 37 34 31 31 32 32 37 42 45 43 40
36 40 71 120 108 25 12 12 14 17 6 10 20 21 23 20 36 52 74 76 46 15 5 6 10 10 16 15 15 24 35 41 33 37 35 43 51 48 44 39 37 40 43 41 39 38 39 40 40 40 39 39 38 33
44 46 105 105 53 15 14 12 15 14 21 15 32 14 17 30 29 25 40 47 19 9 6 21 21 17 14 12 17 12 28 40 36 28 38 54 57 51 44 40 40 44 48 46 45 44 43 40 40 42 42 40 38 35
27 58 82 68 15 11 15 13 27 26 13 22 19 16 16 9 13 19 36 18 14 36 16 10 18 19 21 23 19 16 26 35 29 22 22 39 55 56 53 49 49 50 50 45 43 41 40 42 43 44 45 45 44 41
36 70 53 14 13 11 14 12 11 10 9 7 14 10 5 8 15 36 12 21 24 46 54 29 22 24 25 25 24 30 33 30 28 21 22 34 42 46 45 45 44 44 48 47 43 41 40 42 46 47 49 50 50 48
23 20 11 10 12 8 15 7 12 16 14 5 6 9 5 9 28 2 6 9 30 45 45 52 30 29 32 31 28 29 29 31 28 24 27 34 40 41 38 36 35 36 37 35 39 41 42 45 47 50 53 54 55 53
8 5 13 10 11 11 9 8 6 9 8 5 8 5 7 15 6 7 7 10 41 56 50 48 47 33 36 34 33 34 32 29 25 26 30 35 36 36 35 36 35 36 35 39 42 41 44 47 52 54 56 58 59 57
11 5 4 9 6 10 10 11 10 11 10 7 5 13 12 6 6 11 8 22 31 52 56 53 60 46 40 36 38 36 33 32 27 23 30 36 37 34 37 38 36 34 35 34 37 41 44 47 49 54 59 60 59 58
9 4 6 9 14 22 13 17 15 10 9 11 10 10 8 9 12 7 7 21 32 43 61 67 71 58 50 39 39 34 30 28 26 24 24 28 29 32 29 22 18 21 21 31 36 37 39 43 45 50 53 56 59 60
7 6 12 5 11 7 12 8 9 8 8 19 20 11 20 17 9 8 12 17 26 32 51 64 69 66 59 52 41 32 33 33 33 33 33 29 32 33 34 33 28 26 26 27 30 35 37 39 44 47 51 55 59 60
8 8 9 9 8 16 10 6 5 6 15 26 5 6 7 7 2 4 6 14 23 30 41 53 61 65 62 52 46 43 33 32 35 37 35 37 41 42 39 39 36 32 30 30 30 31 35 38 42 45 49 52 56 60
12 17 6 8 11 7 8 7 9 23 22 21 16 15 12 10 12 12 8 13 19 21 30 41 49 54 58 61 56 47 42 40 41 40 37 35 35 37 35 37 40 40 37 34 35 36 40 40 42 46 51 57 61 62
12 11 10 14 7 7 19 36 34 35 20 15 18 14 16 14 15 16 12 12 17 22 28 33 39 44 47 52 54 50 47 47 46 44 42 38 35 37 37 37 37 37 35 35 37 38 37 37 37 39 43 46 49 51
15 11 5 9 5 17 15 8 10 10 8 8 11 10 10 8 5 6 9 13 15 17 23 32 37 36 39 42 41 44 44 43 45 48 45 43 41 37 33 30 29 29 29 29 30 30 30 30 32 31 30 31 32 34
5 8 13 17 9 4 5 9 7 8 12 9 7 6 6 6 7 7 9 11 15 18 20 22 28 30 32 35 37 38 36 36 37 37 38 39 37 34 31 29 28 28 28 26 25 25 23 23 23 21 21 23 26 28
Wind_Direction_500mb
221 222 222 221 223 217 217 217 217 218 218 226 232 229 229 225 198 196 189 193 185 212 184 193 185 167 160 167 152 155 102 148 54 104 134 227 181 206 87 254 203 188 171 193 200 239 277 358 344 66 292 310 332 343
218 217 220 220 223 222 218 220 218 219 221 223 225 222 227 213 197 198 189 192 174 205 186 198 200 193 189 174 173 165 153 145 162 115 5 58 276 148 178 270 281 274 202 205 184 223 230 295 245 311 310 301 320 331
216 212 219 222 224 218 211 219 219 218 220 222 222 223 218 209 200 198 195 185 175 190 149 169 196 199 198 191 188 155 183 188 179 171 125 137 231 113 201 240 245 245 221 236 31 270 265 266 277 308 326 326 337 340
222 217 213 220 226 212 207 212 215 216 216 217 217 223 215 204 198 195 192 184 170 175 153 190 199 192 204 207 214 215 216 192 177 173 202 200 197 191 252 274 227 216 150 201 254 277 273 271 267 303 6 17 24 15
218 220 218 223 224 207 207 207 212 212 210 205 210 219 205 197 193 193 193 181 169 189 138 139 178 189 191 195 200 192 199 186 166 143 183 231 283 309 242 327 243 194 199 197 223 226 195 241 199 267 355 16 22 30
218 216 225 227 222 208 203 198 206 207 204 208 202 210 192 187 191 184 164 189 181 199 147 119 150 139 147 169 164 155 167 163 156 177 197 233 247 239 274 246 256 223 211 214 238 225 215 215 237 268 301 359 5 13
213 212 222 217 219 207 198 196 203 200 205 203 211 194 187 193 190 166 177 188 178 189 182 105 134 161 165 153 146 133 156 159 170 210 222 223 216 206 242 250 248 221 226 225 230 237 254 247 246 245 262 336 349 359
211 213 211 217 218 212 193 191 199 199 198 197 201 183 187 171 169 158 148 166 168 173 177 121 93 158 168 162 145 165 159 173 212 239 225 216 201 220 250 240 229 220 215 224 225 227 233 236 217 233 269 280 292 317
203 210 214 220 213 207 192 188 194 192 193 199 173 159 150 156 149 128 141 154 169 165 185 161 153 174 159 145 129 154 157 206 211 231 208 177 230 229 226 228 228 224 220 228 210 220 229 237 245 256 266 246 262 237
203 209 208 221 210 200 191 186 187 183 183 160 154 141 117 149 143 130 124 138 170 218 211 131 126 135 156 151 158 135 165 233 195 227 159 223 257 254 249 236 226 194 203 195 179 207 224 233 237 251 243 215 231 201
194 198 207 218 203 194 187 184 180 170 162 147 144 94 138 135 125 96 137 167 175 204 198 162 163 141 167 133 150 190 176 193 111 249 141 263 270 245 249 217 212 201 198 204 212 206 187 209 215 213 197 194 181 176
190 202 205 203 195 190 184 178 172 165 162 166 142 127 125 121 106 119 160 127 195 200 167 148 145 134 142 143 118 162 137 37 223 134 73 269 251 250 228 186 188 195 190 187 196 203 213 208 186 174 164 163 162 159
194 206 201 188 187 188 187 174 166 164 144 130 123 125 138 166 149 177 183 219 182 156 156 153 119 132 133 144 100 113 113 217 133 95 233 233 245 217 196 180 181 192 199 198 201 208 202 182 163 161 165 166 167 163
202 210 200 176 179 184 178 167 167 153 133 114 135 142 178 179 215 187 148 130 152 162 151 148 123 138 134 104 145 101 239 95 17 260 234 244 230 198 185 175 176 179 189 199 205 192 178 169 165 166 161 159 162 160
201 200 201 179 182 177 168 173 173 161 140 131 148 165 187 137 95 139 140 144 152 152 144 132 92 117 102 96 73 105 51 248 209 227 231 249 199 183 181 178 174 176 176 176 176 170 167 167 164 166 164 161 156 157
196 193 199 171 173 170 168 168 160 162 139 157 163 98 136 103 69 132 137 128 145 150 145 143 129 97 194 132 114 211 148 221 241 219 236 251 187 183 182 175 173 175 174 171 170 171 168 169 168 168 168 165 161 161
189 189 198 163 165 169 169 156 155 135 150 144 117 160 160 138 163 164 161 150 157 158 174 140 123 185 106 108 232 186 205 220 213 224 226 226 190 179 175 174 176 178 179 174 170 172 176 176 177 174 175 171 168 167
191 166 171 162 159 148 154 160 153 130 108 118 140 154 143 154 156 151 158 161 162 185 161 184 129 150 187 178 242 222 221 216 223 204 191 182 174 174 179 182 179 178 174 170 170 175 177 179 178 175 177 179 176 176
188 171 136 158 157 146 124 161 142 101 82 97 120 129 124 140 156 170 169 164 177 173 160 154 119 185 215 213 220 208 204 196 198 191 182 173 173 177 177 176 180 180 177 175 175 176 177 180 184 184 182 184 185 185
193 175 159 163 159 145 100 93 108 94 95 116 115 99 103 111 140 161 158 170 178 179 173 183 216 219 202 226 232 223 216 195 180 166 177 178 176 176 180 184 183 178 176 176 177 181 185 187 186 186 189 192 195 195
178 179 168 164 162 87 99 116 82 97 109 94 118 85 89 116 120 141 164 174 185 223 237 231 244 238 212 208 189 198 186 182 187 190 189 181 181 181 180 180 185 187 186 185 187 187 190 191 190 189 191 192 194 196
179 163 152 162 136 83 80 71 115 110 89 132 117 102 111 96 114 147 156 193 235 214 222 269 237 213 191 176 178 176 179 178 181 179 183 195 187 184 186 186 185 190 192 195 196 197 195 191 191 193 195 194 197 200
131 148 145 103 92 77 119 111 93 113 116 150 118 95 88 122 141 137 167 212 227 217 225 245 242 209 190 172 163 158 159 172 173 179 183 187 196 198 192 190 193 196 196 197 199 203 202 199 199 199 200 202 204 208
130 133 103 101 91 100 138 107 105 105 113 126 94 103 114 124 150 148 243 228 209 210 212 222 244 217 200 189 175 167 170 171 166 162 172 183 186 191 196 200 202 205 207 210 210 206 206 207 207 208 209 211 215 217
127 97 105 82 114 114 114 114 92 80 104 116 109 124 167 156 157 181 223 239 193 204 207 211 224 228 213 197 189 179 177 181 187 180 184 184 189 186 193 198 200 205 205 211 212 213 214 213 213 214 219 221 223 226
85 31 90 140 148 120 162 121 146 137 114 103 104 134 157 146 154 230 212 186 188 204 203 205 209 220 210 200 189 180 176 169 167 167 182 187 190 199 194 190 193 202 209 215 217 222 223 222 223 223 224 225 229 232
113 109 64 80 112 116 92 74 117 105 125 142 162 162 157 162 216 230 210 188 181 184 194 196 201 212 207 194 181 179 178 180 182 179 185 193 192 191 197 206 210 217 226 232 232 230 231 233 233 233 233 234 237 238
68 43 129 136 85 68 113 103 128 138 141 142 136 169 172 185 204 203 206 192 190 191 192 192 198 204 206 208 206 203 199 199 205 206 206 201 201 202 203 205 207 218 228 232 231 231 236 241 243 242 242 243 245 245
59 55 54 46 66 52 49 80 115 98 128 168 125 128 137 105 98 152 167 194 193 192 196 196 196 199 203 204 203 204 197 197 205 211 211 214 215 217 217 221 225 230 238 240 241 239 241 242 248 254 257 257 257 257
32 21 55 54 62 50 348 51 103 122 125 115 108 109 95 94 70 84 104 161 175 187 190 194 195 199 204 208 209 210 211 214 220 222 224 225 222 220 222 228 234 241 247 251 254 251 251 250 249 251 252 251 252 254
11 24 74 61 85 37 106 104 106 102 97 81 88 100 112 120 92 74 81 122 153 167 174 183 187 192 197 202 204 208 212 213 215 215 217 221 225 227 230 235 242 248 253 255 255 257 260 263 264 266 267 265 263 263
19 30 107 92 87 136 108 75 77 77 77 81 68 76 99 96 84 100 101 118 134 160 164 168 178 183 189 194 197 201 203 205 211 215 218 224 228 233 238 244 250 255 260 263 264 263 263 265 267 266 267 268 269 267
35 31 82 105 108 167 132 106 92 98 63 71 64 84 92 92 120 125 125 121 133 146 163 165 168 178 186 189 195 200 200 206 213 217 222 229 234 239 244 249 254 257 256 254 254 254 253 254 259 263 267 268 269 271
Wind_Speed_850mb
70 71 77 75 82 95 76 73 73 78 79 77 83 87 72 97 105 114 76 75 72 16 20 30 22 17 20 16 8 17 8 1 2 2 4 3 2 5 1 7 8 12 9 8 7 6 13 13 14 8 9 36 30 33
72 67 71 77 73 80 99 84 73 75 78 78 82 94 90 101 115 116 73 66 64 19 17 26 24 20 20 22 18 24 8 10 6 3 0 4 4 3 5 6 4 6 11 5 12 9 6 4 10 18 21 31 24 30
73 70 73 73 67 74 77 84 83 75 74 76 70 86 109 108 117 118 87 86 61 29 11 15 17 22 21 20 22 13 12 13 10 10 2 2 6 5 6 10 6 11 10 5 4 8 10 19 17 19 16 18 22 16
73 63 73 68 57 73 77 75 83 76 76 67 77 84 113 115 116 119 92 90 59 24 9 8 16 15 21 20 22 24 14 16 12 12 4 3 4 3 5 5 7 8 12 10 10 23 36 41 14 5 6 13 15 11
73 71 67 65 55 82 79 76 81 76 76 74 75 87 118 121 123 108 85 88 62 25 11 11 13 12 11 12 15 14 13 14 9 8 5 6 5 2 8 4 8 23 13 14 11 11 6 1 5 2 5 13 17 18
67 73 74 65 62 88 76 72 79 74 78 72 71 93 123 126 123 97 27 78 67 34 7 6 8 12 9 13 12 16 15 16 9 8 7 6 5 3 3 7 23 40 35 41 10 15 6 7 8 8 7 10 16 16
69 75 69 71 66 98 72 77 76 74 68 70 77 114 128 126 117 78 27 32 85 38 9 12 7 9 15 13 9 10 12 7 9 6 8 7 8 11 6 7 15 34 45 38 37 26 20 22 14 9 5 8 12 10
76 68 74 59 69 86 73 70 75 76 68 66 95 123 125 116 100 43 24 49 78 38 9 7 4 9 21 10 8 10 8 7 9 5 6 7 7 11 11 41 32 18 23 40 47 36 25 11 14 11 11 12 10 6
77 67 86 60 61 83 78 68 75 71 66 88 113 129 115 87 51 31 44 77 63 22 13 13 12 7 24 11 10 10 9 5 6 7 6 5 7 13 26 33 36 47 28 15 34 39 40 36 28 24 22 17 10 8
62 63 74 71 62 79 82 67 76 69 78 131 142 73 19 45 70 68 36 18 22 14 9 7 18 6 18 14 10 11 8 5 4 7 4 6 9 65 55 36 23 16 38 27 22 26 34 39 32 25 19 18 11 14
59 67 69 64 61 78 84 74 74 103 140 115 32 13 85 92 59 15 15 13 16 5 19 19 19 14 23 8 8 12 6 2 3 6 7 6 8 13 15 36 50 26 25 38 31 17 15 16 23 21 20 18 15 18
61 62 64 61 71 80 83 89 116 132 74 71 56 97 54 19 10 10 8 4 9 13 26 27 20 18 20 14 11 10 6 4 6 9 5 8 10 26 13 21 46 47 31 33 28 20 13 11 14 20 20 15 15 17
57 57 72 60 78 85 86 102 122 106 85 113 46 14 18 8 11 21 22 9 9 24 25 28 11 18 16 11 13 7 7 9 10 3 8 12 13 13 28 28 35 46 43 34 29 21 15 13 23 25 22 23 23 25
53 55 61 65 85 94 117 140 120 120 83 16 15 15 11 11 13 10 9 12 18 32 71 64 24 14 12 7 9 11 4 4 3 4 14 7 30 34 39 34 31 34 36 33 28 25 25 28 30 30 26 26 27 31
46 42 54 68 91 107 149 137 131 109 31 12 15 13 15 13 14 31 51 50 35 78 85 38 19 11 4 8 3 9 7 10 14 12 8 11 18 48 51 44 36 32 31 29 29 35 30 34 30 28 28 29 34 37
35 36 50 67 75 156 154 134 117 70 20 19 16 12 26 17 4 18 37 38 59 74 70 18 8 7 4 12 8 18 15 15 9 9 20 11 30 50 49 41 33 28 26 25 29 37 31 33 32 29 32 35 38 37
34 19 51 50 133 149 147 126 51 14 13 14 5 22 28 28 36 40 51 49 91 72 9 11 12 16 9 6 7 12 12 8 12 18 18 13 33 50 48 40 34 31 31 32 35 36 33 35 37 35 39 43 44 40
38 36 49 99 160 137 90 52 24 14 7 8 9 29 23 34 49 47 48 94 68 42 26 12 22 8 13 16 9 9 38 30 19 16 17 22 41 46 44 41 38 34 33 34 32 30 31 36 39 39 41 44 44 41
42 37 45 129 142 66 17 27 7 11 9 12 29 35 25 29 32 58 66 95 58 27 22 20 7 9 9 14 15 24 38 42 34 28 27 39 53 50 43 36 32 35 39 37 34 31 31 32 32 37 42 45 43 40
36 40 71 120 108 25 12 12 14 17 6 10 20 21 23 20 36 52 74 76 46 15 5 6 10 10 16 15 15 24 35 41 33 37 35 43 51 48 44 39 37 40 43 41 39 38 39 40 40 40 39 39 38 33
44 46 105 105 53 15 14 12 15 14 21 15 32 14 17 30 29 25 40 47 19 9 6 21 21 17 14 12 17 12 28 40 36 28 38 54 57 51 44 40 40 44 48 46 45 44 43 40 40 42 42 40 38 35
27 58 82 68 15 11 15 13 27 26 13 22 19 16 16 9 13 19 36 18 14 36 16 10 18 19 21 23 19 16 26 35 29 22 22 39 55 56 53 49 49 50 50 45 43 41 40 42 43 44 45 45 44 41
36 70 53 14 13 11 14 12 11 10 9 7 14 10 5 8 15 36 12 21 24 46 54 29 22 24 25 25 24 30 33 30 28 21 22 34 42 46 45 45 44 44 48 47 43 41 40 42 46 47 49 50 50 48
23 20 11 10 12 8 15 7 12 16 14 5 6 9 5 9 28 2 6 9 30 45 45 52 30 29 32 31 28 29 29 31 28 24 27 34 40 41 38 36 35 36 37 35 39 41 42 45 47 50 53 54 55 53
8 5 13 10 11 11 9 8 6 9 8 5 8 5 7 15 6 7 7 10 41 56 50 48 47 33 36 34 33 34 32 29 25 26 30 35 36 36 35 36 35 36 35 39 42 41 44 47 52 54 56 58 59 57
11 5 4 9 6 10 10 11 10 11 10 7 5 13 12 6 6 11 8 22 31 52 56 53 60 46 40 36 38 36 33 32 27 23 30 36 37 34 37 38 36 34 35 34 37 41 44 47 49 54 59 60 59 58
9 4 6 9 14 22 13 17 15 10 9 11 10 10 8 9 12 7 7 21 32 43 61 67 71 58 50 39 39 34 30 28 26 24 24 28 29 32 29 22 18 21 21 31 36 37 39 43 45 50 53 56 59 60
7 6 12 5 11 7 12 8 9 8 8 19 20 11 20 17 9 8 12 17 26 32 51 64 69 66 59 52 41 32 33 33 33 33 33 29 32 33 34 33 28 26 26 27 30 35 37 39 44 47 51 55 59 60
8 8 9 9 8 16 10 6 5 6 15 26 5 6 7 7 2 4 6 14 23 30 41 53 61 65 62 52 46 43 33 32 35 37 35 37 41 42 39 39 36 32 30 30 30 31 35 38 42 45 49 52 56 60
12 17 6 8 11 7 8 7 9 23 22 21 16 15 12 10 12 12 8 13 19 21 30 41 49 54 58 61 56 47 42 40 41 40 37 35 35 37 35 37 40 40 37 34 35 36 40 40 42 46 51 57 61 62
12 11 10 14 7 7 19 36 34 35 20 15 18 14 16 14 15 16 12 12 17 22 28 33 39 44 47 52 54 50 47 47 46 44 42 38 35 37 37 37 37 37 35 35 37 38 37 37 37 39 43 46 49 51
15 11 5 9 5 17 15 8 10 10 8 8 11 10 10 8 5 6 9 13 15 17 23 32 37 36 39 42 41 44 44 43 45 48 45 43 41 37 33 30 29 29 29 29 30 30 30 30 32 31 30 31 32 34
5 8 13 17 9 4 5 9 7 8 12 9 7 6 6 6 7 7 9 11 15 18 20 22 28 30 32 35 37 38 36 36 37 37 38 39 37 34 31 29 28 28 28 26 25 25 23 23 23 21 21 23 26 28
Wind_Direction_850mb
221 222 222 221 223 217 217 217 217 218 218 226 232 229 229 225 198 196 189 193 185 212 184 193 185 167 160 167 152 155 102 148 54 104 134 227 181 206 87 254 203 188 171 193 200 239 277 358 344 66 292 310 332 343
218 217 220 220 223 222 218 220 218 219 221 223 225 222 227 213 197 198 189 192 174 205 186 198 200 193 189 174 173 165 153 145 162 115 5 58 276 148 178 270 281 274 202 205 184 223 230 295 245 311 310 301 320 331
216 212 219 222 224 218 211 219 219 218 220 222 222 223 218 209 200 198 195 185 175 190 149 169 196 199 198 191 188 155 183 188 179 171 125 137 231 113 201 240 245 245 221 236 31 270 265 266 277 308 326 326 337 340
222 217 213 220 226 212 207 212 215 216 216 217 217 223 215 204 198 195 192 184 170 175 153 190 199 192 204 207 214 215 216 192 177 173 202 200 197 191 252 274 227 216 150 201 254 277 273 271 267 303 6 17 24 15
218 220 218 223 224 207 207 207 212 212 210 205 210 219 205 197 193 193 193 181 169 189 138 139 178 189 191 195 200 192 199 186 166 143 183 231 283 309 242 327 243 194 199 197 223 226 195 241 199 267 355 16 22 30
218 216 225 227 222 208 203 198 206 207 204 208 202 210 192 187 191 184 164 189 181 199 147 119 150 139 147 169 164 155 167 163 156 177 197 233 247 239 274 246 256 223 211 214 238 225 215 215 237 268 301 359 5 13
213 212 222 217 219 207 198 196 203 200 205 203 211 194 187 193 190 166 177 188 178 189 182 105 134 161 165 153 146 133 156 159 170 210 222 223 216 206 242 250 248 221 226 225 230 237 254 247 246 245 262 336 349 359
211 213 211 217 218 212 193 191 199 199 198 197 201 183 187 171 169 158 148 166 168 173 177 121 93 158 168 162 145 165 159 173 212 239 225 216 201 220 250 240 229 220 215 224 225 227 233 236 217 233 269 280 292 317
203 210 214 220 213 207 192 188 194 192 193 199 173 159 150 156 149 128 141 154 169 165 185 161 153 174 159 145 129 154 157 206 211 231 208 177 230 229 226 228 228 224 220 228 210 220 229 237 245 256 266 246 262 237
203 209 208 221 210 200 191 186 187 183 183 160 154 141 117 149 143 130 124 138 170 218 211 131 126 135 156 151 158 135 165 233 195 227 159 223 257 254 249 236 226 194 203 195 179 207 224 233 237 251 243 215 231 201
194 198 207 218 203 194 187 184 180 170 162 147 144 94 138 135 125 96 137 167 175 204 198 162 163 141 167 133 150 190 176 193 111 249 141 263 270 245 249 217 212 201 198 204 212 206 187 209 215 213 197 194 181 176
190 202 205 203 195 190 184 178 172 165 162 166 142 127 125 121 106 119 160 127 195 200 167 148 145 134 142 143 118 162 137 37 223 134 73 269 251 250 228 186 188 195 190 187 196 203 213 208 186 174 164 163 162 159
194 206 201 188 187 188 187 174 166 164 144 130 123 125 138 166 149 177 183 219 182 156 156 153 119 132 133 144 100 113 113 217 133 95 233 233 245 217 196 180 181 192 199 198 201 208 202 182 163 161 165 166 167 163
202 210 200 176 179 184 178 167 167 153 133 114 135 142 178 179 215 187 148 130 152 162 151 148 123 138 134 104 145 101 239 95 17 260 234 244 230 198 185 175 176 179 189 199 205 192 178 169 165 166 161 159 162 160
201 200 201 179 182 177 168 173 173 161 140 131 148 165 187 137 95 139 140 144 152 152 144 132 92 117 102 96 73 105 51 248 209 227 231 249 199 183 181 178 174 176 176 176 176 170 167 167 164 166 164 161 156 157
196 193 199 171 173 170 168 168 160 162 139 157 163 98 136 103 69 132 137 128 145 150 145 143 129 97 194 132 114 211 148 221 241 219 236 251 187 183 182 175 173 175 174 171 170 171 168 169 168 168 168 165 161 161
189 189 198 163 165 169 169 156 155 135 150 144 117 160 160 138 163 164 161 150 157 158 174 140 123 185 106 108 232 186 205 220 213 224 226 226 190 179 175 174 176 178 179 174 170 172 176 176 177 174 175 171 168 167
191 166 171 162 159 148 154 160 153 130 108 118 140 154 143 154 156 151 158 161 162 185 161 184 129 150 187 178 242 222 221 216 223 204 191 182 174 174 179 182 179 178 174 170 170 175 177 179 178 175 177 179 176 176
188 171 136 158 157 146 124 161 142 101 82 97 120 129 124 140 156 170 169 164 177 173 160 154 119 185 215 213 220 208 204 196 198 191 182 173 173 177 177 176 180 180 177 175 175 176 177 180 184 184 182 184 185 185
193 175 159 163 159 145 100 93 108 94 95 116 115 99 103 111 140 161 158 170 178 179 173 183 216 219 202 226 232 223 216 195 180 166 177 178 176 176 180 184 183 178 176 176 177 181 185 187 186 186 189 192 195 195
178 179 168 164 162 87 99 116 82 97 109 94 118 85 89 116 120 141 164 174 185 223 237 231 244 238 212 208 189 198 186 182 187 190 189 181 181 181 180 180 185 187 186 185 187 187 190 191 190 189 191 192 194 196
179 163 152 162 136 83 80 71 115 110 89 132 117 102 111 96 114 147 156 193 235 214 222 269 237 213 191 176 178 176 179 178 181 179 183 195 187 184 186 186 185 190 192 195 196 197 195 191 191 193 195 194 197 200
131 148 145 103 92 77 119 111 93 113 116 150 118 95 88 122 141 137 167 212 227 217 225 245 242 209 190 172 163 158 159 172 173 179 183 187 196 198 192 190 193 196 196 197 199 203 202 199 199 199 200 202 204 208
130 133 103 101 91 100 138 107 105 105 113 126 94 103 114 124 150 148 243 228 209 210 212 222 244 217 200 189 175 167 170 171 166 162 172 183 186 191 196 200 202 205 207 210 210 206 206 207 207 208 209 211 215 217
127 97 105 82 114 114 114 114 92 80 104 116 109 124 167 156 157 181 223 239 193 204 207 211 224 228 213 197 189 179 177 181 187 180 184 184 189 186 193 198 200 205 205 211 212 213 214 213 213 214 219 221 223 226
85 31 90 140 148 120 162 121 146 137 114 103 104 134 157 146 154 230 212 186 188 204 203 205 209 220 210 200 189 180 176 169 167 167 182 187 190 199 194 190 193 202 209 215 217 222 223 222 223 223 224 225 229 232
113 109 64 80 112 116 92 74 117 105 125 142 162 162 157 162 216 230 210 188 181 184 194 196 201 212 207 194 181 179 178 180 182 179 185 193 192 191 197 206 210 217 226 232 232 230 231 233 233 233 233 234 237 238
68 43 129 136 85 68 113 103 128 138 141 142 136 169 172 185 204 203 206 192 190 191 192 192 198 204 206 208 206 203 199 199 205 206 206 201 201 202 203 205 207 218 228 232 231 231 236 241 243 242 242 243 245 245
59 55 54 46 66 52 49 80 115 98 128 168 125 128 137 105 98 152 167 194 193 192 196 196 196 199 203 204 203 204 197 197 205 211 211 214 215 217 217 221 225 230 238 240 241 239 241 242 248 254 257 257 257 257
32 21 55 54 62 50 348 51 103 122 125 115 108 109 95 94 70 84 104 161 175 187 190 194 195 199 204 208 209 210 211 214 220 222 224 225 222 220 222 228 234 241 247 251 254 251 251 250 249 251 252 251 252 254
11 24 74 61 85 37 106 104 106 102 97 81 88 100 112 120 92 74 81 122 153 167 174 183 187 192 197 202 204 208 212 213 215 215 217 221 225 227 230 235 242 248 253 255 255 257 260 263 264 266 267 265 263 263
19 30 107 92 87 136 108 75 77 77 77 81 68 76 99 96 84 100 101 118 134 160 164 168 178 183 189 194 197 201 203 205 211 215 218 224 228 233 238 244 250 255 260 263 264 263 263 265 267 266 267 268 269 267
35 31 82 105 108 167 132 106 92 98 63 71 64 84 92 92 120 125 125 121 133 146 163 165 168 178 186 189 195 200 200 206 213 217 222 229 234 239 244 249 254 257 256 254 254 254 253 254 259 263 267 268 269 271